Date String (YYYY-MM-DD hh:mm:ss) UTC,Instrument flags,Ambient pressure (hPa),Sample flow (lpm),Bypass flow (lpm),Sample temperature (°C),Ambient temperature (°C),ASC tube jacket temperature (°C),LED temperature (°C),Box temperature (°C),Sample RH (%),Span deviation,Mass concentration (μg/m³),Mass concentration (μg/m³),Mass concentration (μg/m³)
DateTimeUTC,F1_M11,P_M11,Q1_M11,Q2_M11,T1_M11,T2_M11,T3_M11,T4_M11,T5_M11,U1_M11,ZSPAN_M11,X0_M11,X2_M11,X1_M11
2022-08-03 02:00:00,,0826.1,4.99,0.00,29.1,27.1,00.0,37.9,30.9,35.1,0000.0,0007.95,0003.30,0002.42
2022-08-03 02:01:00,,0826.1,5.00,0.00,29.3,27.3,00.0,37.9,31.0,35.1,0000.0,0007.92,0003.29,0002.41
2022-08-03 02:02:00,,0826.1,5.01,0.00,29.5,27.5,00.0,37.9,31.2,35.5,0000.0,0007.21,0003.27,0002.39
2022-08-03 02:03:00,,0826.2,5.00,0.00,29.9,27.7,00.0,37.9,31.4,34.3,0000.0,0007.14,0003.22,0002.36
2022-08-03 02:04:00,,0826.2,5.01,0.00,30.1,27.9,00.0,38.0,31.5,33.2,0000.0,0007.34,0003.18,0002.33
2022-08-03 02:05:00,,0826.2,5.00,0.00,30.2,28.0,00.0,38.0,31.5,33.0,0000.0,0007.43,0003.12,0002.31
2022-08-03 02:06:00,,0826.2,5.00,0.00,30.3,28.2,00.0,38.1,31.5,32.8,0000.0,0007.65,0003.14,0002.30
2022-08-03 02:07:00,,0826.2,5.00,0.00,30.4,28.3,00.0,38.2,31.6,32.8,0000.0,0007.61,0003.10,0002.26
2022-08-03 02:08:00,,0826.2,5.01,0.00,30.4,28.2,00.0,38.3,31.5,33.0,0000.0,0007.49,0003.00,0002.22
2022-08-03 02:09:00,,0826.2,5.00,0.00,30.4,27.5,00.0,38.3,31.4,32.9,0000.0,0007.60,0003.01,0002.20
2022-08-03 02:10:00,,0826.1,5.00,0.00,30.3,27.1,00.0,38.4,31.3,33.6,0000.0,0007.50,0003.02,0002.19
2022-08-03 02:11:00,,0826.0,5.00,0.00,30.2,27.0,00.0,38.4,31.2,33.6,0000.0,0006.88,0002.96,0002.15
2022-08-03 02:12:00,,0826.0,5.01,0.00,30.1,27.1,00.0,38.4,31.1,34.1,0000.0,0006.97,0002.97,0002.10
2022-08-03 02:13:00,,0826.0,5.00,0.00,30.1,27.2,00.0,38.4,31.2,35.3,0000.0,0007.07,0002.98,0002.07
2022-08-03 02:14:00,,0825.9,5.00,0.00,30.2,27.4,00.0,38.4,31.4,35.0,0000.0,0006.93,0003.07,0002.07
2022-08-03 02:15:00,,0825.8,5.00,0.00,30.4,27.6,00.0,38.5,31.5,35.0,0000.0,0006.90,0003.16,0002.05
2022-08-03 02:16:00,,0826.0,5.00,0.00,30.7,27.8,00.0,38.5,31.6,34.7,0000.0,0006.60,0003.20,0002.01
2022-08-03 02:17:00,,0825.9,4.99,0.00,30.8,27.9,00.0,38.5,31.7,33.4,0000.0,0006.24,0003.17,0001.96
2022-08-03 02:18:00,,0825.7,5.00,0.00,30.9,28.1,00.0,38.6,31.7,32.7,0000.0,0006.09,0003.14,0001.90
2022-08-03 02:19:00,,0825.7,4.99,0.00,31.0,28.2,00.0,38.7,31.8,31.8,0000.0,0005.98,0003.11,0001.85
2022-08-03 02:20:00,,0825.7,5.01,0.00,31.0,28.4,00.0,38.8,31.8,31.5,0000.0,0005.50,0002.99,0001.77
2022-08-03 02:21:00,,0825.7,5.00,0.00,31.0,28.4,00.0,38.8,31.8,32.1,0000.0,0005.18,0002.86,0001.71
2022-08-03 02:22:00,,0825.6,4.99,0.00,31.0,27.8,00.0,38.9,31.7,31.4,0000.0,0005.02,0002.79,0001.67
2022-08-03 02:23:00,,0825.7,5.00,0.00,31.0,27.5,00.0,38.9,31.7,32.1,0000.0,0004.95,0002.71,0001.64
2022-08-03 02:24:00,,0825.7,5.00,0.00,30.8,27.5,00.0,38.9,31.5,32.5,0000.0,0004.85,0002.65,0001.61
2022-08-03 02:25:00,,0825.9,5.00,0.00,30.7,27.5,00.0,38.9,31.5,32.9,0000.0,0004.55,0002.52,0001.57
2022-08-03 02:26:00,,0825.8,5.00,0.00,30.7,27.7,00.0,38.9,31.6,34.2,0000.0,0004.19,0002.36,0001.55
2022-08-03 02:27:00,,0825.8,5.01,0.00,30.7,27.8,00.0,38.9,31.6,34.4,0000.0,0003.95,0002.28,0001.53
2022-08-03 02:28:00,,0825.8,4.99,0.00,30.6,28.0,00.0,39.0,31.7,34.6,0000.0,0003.78,0002.20,0001.52
2022-08-03 02:29:00,,0825.8,5.00,0.00,30.6,28.1,00.0,39.0,31.7,34.8,0000.0,0003.77,0002.19,0001.53
2022-08-03 02:30:00,,0825.9,5.00,0.00,30.6,28.2,00.0,39.0,31.8,33.9,0000.0,0004.01,0002.22,0001.53
2022-08-03 02:31:00,,0825.8,5.01,0.00,30.6,28.4,00.0,39.0,31.7,32.7,0000.0,0004.13,0002.25,0001.53
2022-08-03 02:32:00,,0825.8,4.99,0.00,30.6,28.2,00.0,39.0,31.7,31.1,0000.0,0004.21,0002.26,0001.52
2022-08-03 02:33:00,,0826.1,5.00,0.00,30.5,27.7,00.0,39.0,31.6,32.5,0000.0,0004.26,0002.28,0001.52
2022-08-03 02:34:00,,0826.2,5.01,0.00,30.5,27.5,00.0,39.0,31.6,32.8,0000.0,0004.15,0002.24,0001.53
2022-08-03 02:35:00,,0825.7,5.00,0.00,30.4,27.5,00.0,38.9,31.5,32.1,0000.0,0004.20,0002.22,0001.53
2022-08-03 02:36:00,,0825.7,4.99,0.00,30.3,27.6,00.0,38.9,31.5,31.5,0000.0,0004.11,0002.19,0001.51
2022-08-03 02:37:00,,0825.6,5.00,0.00,30.3,27.7,00.0,38.9,31.5,30.9,0000.0,0004.04,0002.19,0001.50
2022-08-03 02:38:00,,0825.6,4.99,0.00,30.2,27.9,00.0,38.9,31.6,28.0,0000.0,0003.93,0002.14,0001.50
2022-08-03 02:39:00,,0825.6,5.00,0.00,30.2,28.0,00.0,38.9,31.6,27.8,0000.0,0003.93,0002.14,0001.50
2022-08-03 02:40:00,,0825.7,5.00,0.00,30.2,28.2,00.0,38.9,31.7,28.5,0000.0,0003.76,0002.08,0001.48
2022-08-03 02:41:00,,0825.6,5.00,0.00,30.2,28.3,00.0,38.9,31.7,30.0,0000.0,0003.50,0002.01,0001.46
2022-08-03 02:42:00,,0825.6,5.00,0.00,30.2,28.4,00.0,38.9,31.8,31.8,0000.0,0003.55,0001.98,0001.47
2022-08-03 02:43:00,,0825.6,5.02,0.00,30.2,28.0,00.0,38.8,31.6,31.6,0000.0,0005.04,0001.96,0001.47
2022-08-03 02:44:00,,0825.5,4.99,0.00,30.2,27.3,00.0,38.8,31.4,30.7,0000.0,0005.04,0001.93,0001.45
2022-08-03 02:45:00,,0825.6,5.00,0.00,30.1,27.0,00.0,38.8,31.4,31.2,0000.0,0005.05,0001.95,0001.44
2022-08-03 02:46:00,,0825.6,5.00,0.00,30.0,27.0,00.0,38.7,31.3,31.2,0000.0,0004.98,0001.95,0001.43
2022-08-03 02:47:00,,0825.6,5.00,0.00,29.9,27.1,00.0,38.7,31.2,33.7,0000.0,0005.02,0001.96,0001.44
2022-08-03 02:48:00,,0825.6,4.99,0.00,29.9,27.3,00.0,38.6,31.2,32.9,0000.0,0005.03,0001.95,0001.43
2022-08-03 02:49:00,,0825.6,5.01,0.00,29.8,27.5,00.0,38.6,31.3,33.1,0000.0,0005.06,0001.94,0001.41
2022-08-03 02:50:00,,0825.6,4.99,0.00,29.8,27.6,00.0,38.6,31.4,34.5,0000.0,0005.15,0001.97,0001.41
2022-08-03 02:51:00,,0825.6,5.01,0.00,29.9,27.8,00.0,38.6,31.4,36.9,0000.0,0005.35,0002.04,0001.42
2022-08-03 02:52:00,,0825.6,4.99,0.00,30.1,28.0,00.0,38.6,31.7,35.7,0000.0,0005.84,0002.10,0001.44
2022-08-03 02:53:00,,0825.7,5.00,0.00,30.5,28.1,00.0,38.6,31.9,33.8,0000.0,0006.77,0002.13,0001.42
2022-08-03 02:54:00,,0825.7,5.01,0.00,30.7,28.3,00.0,38.6,31.9,34.2,0000.0,0004.99,0002.09,0001.40
2022-08-03 02:55:00,,0825.7,5.00,0.00,30.8,28.4,00.0,38.7,31.9,34.1,0000.0,0004.98,0002.11,0001.40
2022-08-03 02:56:00,,0825.7,4.99,0.00,30.9,28.4,00.0,38.8,31.9,33.4,0000.0,0005.03,0002.12,0001.41
2022-08-03 02:57:00,,0825.7,5.00,0.00,30.9,27.9,00.0,38.8,31.7,33.1,0000.0,0005.08,0002.14,0001.41
2022-08-03 02:58:00,,0825.6,5.00,0.00,30.8,27.2,00.0,38.8,31.5,33.0,0000.0,0005.06,0002.12,0001.39
2022-08-03 02:59:00,,0825.7,4.99,0.00,30.8,27.0,00.0,38.8,31.5,33.4,0000.0,0004.95,0002.09,0001.38
